Flag for U.S.A. Weather past 2 weeks in Springfield, Massachusetts, U.S.A.

Now
78 °F

Sunny.


Feels Like: 80 °F
Forecast: 63 / 87 °F
Wind: No wind

Location: Barnes Municipal Airport

Current Time: Aug 31, 2015 at 10:25:14 AM

Latest Report: Aug 31, 2015 at 9:53 AM


Visibility: 10 mi

Pressure: 29.99 "Hg

Humidity: 66%

Dew point: 66 °F

Location of SpringfieldLocation

Historic Weather in Springfield — Graph

°F

Springfield temperature yesterday

Maximum temperature yesterday: 85 °F (at 3:53 PM)
Minimum temperature yesterday: 59 °F (at 5:53 AM)
Average temperature yesterday: 71 °F

Past Weeks' High & Low Weather Summary

 TemperatureHumidityPressure
High93 °F (Aug 17, 3:53 PM)97% (Aug 17, 3:53 AM)30.22 "Hg (Aug 17, 3:53 AM)
Low52 °F (Aug 29, 5:53 AM)36% (Aug 17, 4:55 PM)29.78 "Hg (Aug 25, 3:53 PM)
Average72 °F75%30.02 "Hg
* Reported Aug 16 9:00 AM — Aug 31 8:53 AM, Springfield, Weather by CustomWeather, © 2015

Note: Actual official high and low records may vary slightly from our data, if they occured in-between our weather recording intervals... More about our weather records

Advertising

Springfield weather history for previous 24 hours

 ConditionsComfort  
Time TempWeatherWind HumidityBarometerVisibility
8:53 AM
Mon, Aug 31
72 °FSunny.5 mph78%30.00 "Hg10 mi
7:53 AM67 °FSunny.3 mph90%30.00 "Hg7 mi
6:53 AM64 °FFog.No wind94%29.99 "Hg4 mi
5:53 AM63 °FFog.No wind93%29.98 "Hg1 mi
4:53 AM65 °FFog.No wind94%29.98 "Hg4 mi
3:53 AM65 °FFog.No wind97%29.98 "Hg5 mi
2:53 AM66 °FFog.No wind93%29.99 "Hg5 mi
1:53 AM65 °FFog.No wind97%29.99 "Hg4 mi
12:53 AM67 °FClear.No wind93%30.01 "Hg9 mi
11:53 PM
Sun, Aug 30
69 °FClear.3 mph87%30.01 "Hg10 mi
10:53 PM70 °FClear.No wind87%30.01 "Hg10 mi
9:53 PM71 °FPassing clouds.3 mph87%30.02 "Hg10 mi
8:53 PM74 °FMostly cloudy.No wind79%30.02 "Hg10 mi
7:53 PM76 °FScattered clouds.No wind72%30.00 "Hg10 mi
6:53 PM81 °FPartly sunny.3 mph56%29.99 "Hg10 mi
5:53 PM83 °FPassing clouds.6 mph50%29.99 "Hg10 mi
4:53 PM84 °FSunny.5 mph48%30.00 "Hg10 mi
3:53 PM85 °FSunny.7 mph45%30.01 "Hg10 mi
2:53 PM84 °FPartly sunny.7 mph49%30.03 "Hg10 mi
1:53 PM80 °FOvercast.5 mph62%30.05 "Hg10 mi
12:53 PM79 °FOvercast.5 mph62%30.06 "Hg10 mi
11:53 AM76 °FOvercast.5 mph67%30.08 "Hg10 mi
10:53 AM74 °FOvercast.No wind69%30.10 "Hg10 mi
Weather by CustomWeather, © 2015

See weather overviewHow to use our weather pages